Regional Weather Roundup
Issued by NWS

Home | Current Version | Previous Version | Graphics & Text | Print | Product List | Glossary On
Versions: 1 2 3 4 5 6 7 8 9 10 11 12 13 14 15 16 17 18 19 20 21 22 23 24 25 26 27 28 29 30 31 32 33 34 35 36 37 38 39 40 41 42 43 44 45 46 47 48 49 50
000
ASUS43 KIND 031709
RWRIN

WEATHER ROUNDUP FOR INDIANA
NATIONAL WEATHER SERVICE INDIANAPOLIS IN
100 PM EDT FRI JUL 03 2015

NOTE: "FAIR" INDICATES FEW OR NO CLOUDS BELOW 12,000 FEET WITH NO
SIGNIFICANT WEATHER AND/OR OBSTRUCTIONS TO VISIBILITY.

* - STATION DOES NOT REPORT WEATHER SUCH AS PRECIPITATION OR FOG.

+ - STATION NOT QUALITY CONTROLLED BY THE NATIONAL WEATHER SERVICE.
    USE DATA WITH CAUTION...ESPECIALLY DEWPOINT AND RELATIVE
    HUMIDITY OBSERVATIONS.

INZ001>003-010>013-019-020-031800-
NORTHWEST INDIANA

CITY           SKY/WX    TMP DP  RH WIND       PRES   REMARKS
GARY /AIRPORT/ PTSUNNY   70  61  73 NE6       29.98S
KNOX *+        MOSUNNY   73  54  49 NE8       29.96S
LA PORTE +     PTSUNNY   73  56  54 NE8       29.98S
MICHIGAN CITY+ CLOUDY    72  54  53 E3        29.98S
MONTICELLO +   MOSUNNY   73  62  69 E6        29.94S
RENSSELAER +   MOSUNNY   73  61  64 E7        29.96S
VALPARAISO     PTSUNNY   75  57  53 NE7       29.98S

$$

LMZ046-743>745-031800-
SOUTHERN LAKE MICHIGAN

STATION/POSITION TIME  TEMP    WIND        PRES    WAVE
                       AIR SEA DIR/SP/G            HT
                 (UTC) (F)     (DEG/KT/KT) (MB)    (FT)
BURNS HARBOR     1700   63      10/  8/  9 1015.6S
MICHIGAN CITY    1700   64     360/  1/  2   N/A
5NW MICH CITY    1700   63 64   10/  8/ 10   N/A     1

$$

INZ004-005-014>016-021>024-031800-
NORTH CENTRAL INDIANA

CITY           SKY/WX    TMP DP  RH WIND       PRES   REMARKS
ELKHART        MOSUNNY   72  55  56 SE6       29.99S
GOSHEN         PTSUNNY   73  55  53 E8        29.98R
LOGANSPORT +   MOSUNNY   72  55  56 NE6       29.96S
PERU/GRISSOM   CLOUDY    72  60  67 NE6       29.94F
ROCHESTER +    MOSUNNY   73  59  60 E3        29.97S
SOUTH BEND     PTSUNNY   73  54  51 E8        29.98S
WARSAW +         N/A     70  57  64 E6        29.97S

$$

INZ006>009-017-018-025>027-031800-
NORTHEAST INDIANA

CITY           SKY/WX    TMP DP  RH WIND       PRES   REMARKS
ANGOLA *+        N/A     72  55  56 SE6       29.98S
AUBURN +       PTSUNNY   72  54  53 E6        29.98S
FORT WAYNE     CLOUDY    71  57  61 E8        29.97R
HUNTINGTON +   PTSUNNY   72  59  64 E5        29.96S

$$

INZ028-029-035-036-043>045-051>053-031800-
WEST CENTRAL INDIANA

CITY           SKY/WX    TMP DP  RH WIND       PRES   REMARKS
CRAWFORDSVL +  MOSUNNY   71  59  66 E6        29.93S
GREENCASTLE +  PTSUNNY   73  61  64 NE6       29.92S
LAFAYETTE      MOSUNNY   71  61  70 NE7       29.94R
TERRE HAUTE    CLOUDY    75  66  73 CALM      29.91R

$$

INZ030>032-037>040-046>048-054>057-064-065-031800-
CENTRAL INDIANA

CITY           SKY/WX    TMP DP  RH WIND       PRES   REMARKS
CP ATTERBURY + CLOUDY    70  63  78 N7        29.91S THUNDER
FRANKFORT +    MOSUNNY   72  62  71 NE8       29.96S
GREENWOOD *+   CLOUDY    72  61  68 NE7       29.92S
INDIANAPOLIS   PTSUNNY   71  61  70 N9        29.90S
-EAGLE CREEK   CLOUDY    70  61  73 NE8       29.91F
KOKOMO *+      PTSUNNY   72  61  68 E6        29.94S
MARION +       PTSUNNY   71  59  66 NE8       29.95F
MT COMFORT *+  PTSUNNY   73  59  60 NE8       29.92F
SHELBYVILLE    TSTM      68  64  87 E6        29.91S FOG
ZIONSVILLE +   CLOUDY    69  59  70 NE7       29.94S

$$

INZ033-034-041-042-049-050-058-059-031800-
EAST CENTRAL INDIANA

CITY           SKY/WX    TMP DP  RH WIND       PRES   REMARKS
MUNCIE         MOSUNNY   74  62  66 E9        29.94S

$$

INZ060-061-067>069-081>083-085>088-031800-
SOUTHWEST INDIANA

CITY           SKY/WX    TMP DP  RH WIND       PRES   REMARKS
EVANSVILLE     MOSUNNY   79  69  71 CALM      29.88F HAZE
HUNTINGBURG *+ CLOUDY    77  70  78 NW3       29.88S
WASHINGTON +   CLOUDY    74  67  78 CALM      29.89S

$$

INZ062-063-066-070>080-084-089>092-031800-
SOUTH CENTRAL AND SOUTHEAST INDIANA

CITY           SKY/WX    TMP DP  RH WIND       PRES   REMARKS
BLOOMINGTON    CLOUDY    72  65  78 NE6       29.90S
MADISON *+     CLOUDY    73  66  78 E5        29.91R
NORTH VERNON + CLOUDY    73  66  78 NE3       29.91R
SEYMOUR +      CLOUDY    73  66  78 CALM      29.90R

$$



USA.gov is the U.S. government's official web portal to all federal, state and local government web resources and services.